This is the latest recevied weather packets stored in our database for station/object HS6PNA-1. If no packets are shown the sender has not sent any weather packets the latest 10 day(s).
| Time | Temp. | Humidity | Pressure | Rain* | Wind** | Luminosity | Snow |
|---|---|---|---|---|---|---|---|
| 1777901555 | 32.78° C | 65% | 1004 hPa | - | - | 0 W/m² | - |
| 1777900631 | 32.78° C | 61% | 1004 hPa | - | - | 0 W/m² | - |
| 1777899706 | 32.78° C | 61% | 1004 hPa | - | - | 0 W/m² | - |
| 1777898782 | 32.78° C | 58% | 1004 hPa | - | - | 0 W/m² | - |
| 1777897857 | 32.78° C | 58% | 1003 hPa | - | - | 0 W/m² | - |
| 1777896933 | 32.78° C | 58% | 1003 hPa | - | - | 0 W/m² | - |
| 1777896007 | 33.33° C | 60% | 1002 hPa | - | - | 0 W/m² | - |
| 1777895083 | 33.33° C | 56% | 1002 hPa | - | - | 0 W/m² | - |
| 1777894157 | 33.33° C | 55% | 1002 hPa | - | - | 1 W/m² | - |
| 1777893233 | 33.33° C | 56% | 1002 hPa | - | - | 5 W/m² | - |
| 1777892308 | 33.89° C | 52% | 1002 hPa | - | - | 11 W/m² | - |
| 1777891384 | 33.89° C | 54% | 1002 hPa | - | - | 21 W/m² | - |
| 1777890459 | 33.89° C | 54% | 1002 hPa | - | - | 32 W/m² | - |
| 1777889535 | 34.44° C | 58% | 1001 hPa | - | - | 44 W/m² | - |
| 1777888610 | 34.44° C | 65% | 1001 hPa | - | - | 66 W/m² | - |
| 1777887685 | 34.44° C | 65% | 1001 hPa | - | - | 78 W/m² | - |
| 1777886761 | 33.89° C | 65% | 1001 hPa | - | - | 67 W/m² | - |
| 1777885836 | 33.89° C | 66% | 1001 hPa | - | - | 47 W/m² | - |
| 1777884912 | 33.33° C | 66% | 1001 hPa | - | - | 33 W/m² | - |
| 1777883987 | 33.33° C | 66% | 1002 hPa | - | - | 23 W/m² | - |
| 1777883063 | 32.78° C | 66% | 1002 hPa | - | - | 21 W/m² | - |
| 1777882139 | 33.33° C | 68% | 1002 hPa | - | - | 27 W/m² | - |
| 1777881214 | 32.78° C | 69% | 1002 hPa | - | - | 37 W/m² | - |
| 1777880290 | 32.22° C | 74% | 1002 hPa | - | - | 51 W/m² | - |
| 1777879365 | 32.78° C | 74% | 1003 hPa | - | - | 85 W/m² | - |
* Rain since midnight (hover to see other rain measurements)
** Current wind speed in m/s (hover to see current wind gust speed)